Powrót do katalogu

COSMOS 791

AktywnyMilitariaLEO
NORAD 8607·PAYLOAD·🇷🇺 Russia

Wystrzelony Jan 28, 1976 z Plesetsk Cosmodrome

Loading…

Następne Przeloty (najbliższe 24 godziny)

TLE

ŚwieżeSource: Space-Track

Epoka: Sep 14, 2026, 18:54 UTC

1 08607U 76008A   26257.78753760 -.00000014  00000-0  92049-5 0  9992
2 08607  74.0587  12.8191 0053917  86.5278  79.4504 12.55046939319553

Śledź COSMOS 791 w czasie rzeczywistym z AllMySat

Download on the App Store